Date String (YYYY-MM-DD hh:mm:ss) UTC,Instrument flags,Ambient pressure (hPa),Sample flow (lpm),Bypass flow (lpm),Sample temperature (°C),Ambient temperature (°C),ASC tube jacket temperature (°C),LED temperature (°C),Box temperature (°C),Sample RH (%),Span deviation,Mass concentration (μg/m³),Mass concentration (μg/m³),Mass concentration (μg/m³)
DateTimeUTC,F1_M11,P_M11,Q1_M11,Q2_M11,T1_M11,T2_M11,T3_M11,T4_M11,T5_M11,U1_M11,ZSPAN_M11,X2_M11,X0_M11,X1_M11
2021-09-18 04:00:00,,0832.3,4.99,0.00,29.5,28.7,00.0,38.7,31.2,20.3,0002.6,0012.51,0029.37,0010.06
2021-09-18 04:01:00,,0832.3,5.00,0.00,29.5,28.7,00.0,38.7,31.2,20.3,0002.3,0012.53,0028.64,0010.07
2021-09-18 04:02:00,,0832.3,4.99,0.00,29.5,28.7,00.0,38.7,31.2,20.4,0002.3,0012.50,0029.37,0010.07
2021-09-18 04:03:00,,0832.3,5.01,0.00,29.5,28.7,00.0,38.7,31.2,20.4,0002.1,0012.47,0029.72,0010.07
2021-09-18 04:04:00,,0832.3,4.99,0.00,29.5,28.7,00.0,38.7,31.2,20.4,0002.0,0012.51,0028.77,0010.06
2021-09-18 04:05:00,,0832.3,5.00,0.00,29.5,28.7,00.0,38.7,31.2,20.4,0001.9,0012.51,0029.09,0010.06
2021-09-18 04:06:00,,0832.3,5.01,0.00,29.5,28.7,00.0,38.7,31.2,20.4,0001.6,0012.41,0029.75,0010.06
2021-09-18 04:07:00,,0832.3,5.00,0.00,29.5,28.7,00.0,38.7,31.2,20.3,0001.6,0012.39,0029.07,0010.08
2021-09-18 04:08:00,,0832.3,4.99,0.00,29.5,28.8,00.0,38.7,31.2,20.3,0001.4,0012.43,0029.35,0010.12
2021-09-18 04:09:00,,0832.4,5.00,0.00,29.5,28.8,00.0,38.7,31.2,20.3,0001.4,0012.49,0029.67,0010.15
2021-09-18 04:10:00,,0832.3,5.01,0.00,29.5,28.8,00.0,38.7,31.2,20.3,0001.1,0012.41,0030.48,0010.12
2021-09-18 04:11:00,,0832.4,5.00,0.00,29.5,28.8,00.0,38.7,31.2,20.3,0000.9,0012.44,0030.73,0010.11
2021-09-18 04:12:00,,0832.3,4.99,0.00,29.5,28.8,00.0,38.7,31.2,20.3,0000.9,0012.44,0030.81,0010.13
2021-09-18 04:13:00,,0832.4,5.00,0.00,29.5,28.8,00.0,38.7,31.2,20.3,0001.1,0012.47,0030.11,0010.16
2021-09-18 04:14:00,,0832.3,5.00,0.00,29.5,28.8,00.0,38.7,31.2,20.3,0001.1,0012.58,0031.06,0010.20
2021-09-18 04:15:00,,0832.4,5.02,0.00,29.5,28.8,00.0,38.7,31.2,20.3,0001.0,0012.60,0032.08,0010.22
2021-09-18 04:16:00,,0832.4,4.99,0.00,29.5,28.8,00.0,38.7,31.2,20.3,0001.1,0012.54,0030.96,0010.22
2021-09-18 04:17:00,,0832.3,5.00,0.00,29.5,28.8,00.0,38.7,31.2,20.3,0001.5,0012.59,0029.41,0010.22
2021-09-18 04:18:00,,0832.4,5.02,0.00,29.5,28.7,00.0,38.7,31.3,20.3,0001.4,0012.65,0030.61,0010.24
2021-09-18 04:19:00,,0832.3,5.01,0.00,29.5,28.7,00.0,38.7,31.2,20.3,0001.4,0012.69,0030.76,0010.22
2021-09-18 04:20:00,,0832.3,5.00,0.00,29.5,28.7,00.0,38.7,31.2,20.3,0001.4,0012.70,0030.72,0010.21
2021-09-18 04:21:00,,0832.2,4.99,0.00,29.5,28.7,00.0,38.7,31.2,20.3,0001.7,0012.76,0030.19,0010.23
2021-09-18 04:22:00,,0832.2,5.00,0.00,29.5,28.7,00.0,38.7,31.2,20.3,0001.8,0012.85,0029.76,0010.23
2021-09-18 04:23:00,,0832.3,5.01,0.00,29.5,28.7,00.0,38.7,31.2,20.3,0001.7,0012.88,0030.06,0010.24
2021-09-18 04:24:00,,0832.3,5.00,0.00,29.5,28.7,00.0,38.7,31.2,20.3,0001.6,0012.94,0030.61,0010.23
2021-09-18 04:25:00,,0832.3,5.00,0.00,29.5,28.7,00.0,38.7,31.1,20.4,0001.7,0012.88,0028.85,0010.22
2021-09-18 04:26:00,,0832.3,5.00,0.00,29.4,28.7,00.0,38.7,31.1,20.4,0001.9,0012.83,0029.13,0010.22
2021-09-18 04:27:00,,0832.3,5.01,0.00,29.4,28.7,00.0,38.7,31.1,20.4,0002.0,0012.86,0029.85,0010.24
2021-09-18 04:28:00,,0832.3,4.99,0.00,29.4,28.7,00.0,38.7,31.1,20.4,0001.8,0012.82,0030.81,0010.23
2021-09-18 04:29:00,,0832.2,5.00,0.00,29.4,28.7,00.0,38.7,31.1,20.4,0001.9,0012.69,0029.90,0010.21
2021-09-18 04:30:00,,0832.2,4.99,0.00,29.4,28.6,00.0,38.7,31.1,20.4,0002.0,0012.62,0029.03,0010.22
2021-09-18 04:31:00,,0832.3,5.02,0.00,29.4,28.6,00.0,38.7,31.1,20.4,0002.3,0012.58,0028.80,0010.24
2021-09-18 04:32:00,,0832.3,4.99,0.00,29.4,28.6,00.0,38.7,31.1,20.4,0002.4,0012.58,0028.75,0010.26
2021-09-18 04:33:00,,0832.3,4.99,0.00,29.4,28.6,00.0,38.7,31.1,20.4,0002.4,0012.46,0030.14,0010.25
2021-09-18 04:34:00,,0832.3,5.00,0.00,29.4,28.6,00.0,38.6,31.1,20.4,0002.7,0012.45,0029.61,0010.24
2021-09-18 04:35:00,,0832.2,5.00,0.00,29.4,28.6,00.0,38.6,31.0,20.4,0002.9,0012.40,0028.97,0010.24
2021-09-18 04:36:00,,0832.3,4.99,0.00,29.4,28.6,00.0,38.6,31.1,20.5,0002.9,0012.40,0029.63,0010.24
2021-09-18 04:37:00,,0832.3,5.01,0.00,29.4,28.6,00.0,38.6,31.1,20.5,0002.9,0012.42,0029.71,0010.23
2021-09-18 04:38:00,,0832.3,4.99,0.00,29.4,28.6,00.0,38.6,31.1,20.5,0002.9,0012.36,0029.34,0010.20
2021-09-18 04:39:00,,0832.3,5.00,0.00,29.4,28.6,00.0,38.6,31.1,20.5,0002.7,0012.33,0029.36,0010.19
2021-09-18 04:40:00,,0832.3,4.99,0.00,29.4,28.6,00.0,38.6,31.0,20.5,0002.8,0012.42,0030.62,0010.21
2021-09-18 04:41:00,,0832.3,5.02,0.00,29.4,28.6,00.0,38.6,31.1,20.5,0002.6,0012.48,0031.50,0010.21
2021-09-18 04:42:00,,0832.3,4.99,0.00,29.4,28.6,00.0,38.6,31.1,20.5,0001.9,0012.44,0031.66,0010.18
2021-09-18 04:43:00,,0832.3,5.01,0.00,29.4,28.6,00.0,38.6,31.1,20.4,0001.8,0012.43,0031.73,0010.17
2021-09-18 04:44:00,,0832.3,4.99,0.00,29.4,28.6,00.0,38.6,31.1,20.4,0001.5,0012.41,0030.75,0010.15
2021-09-18 04:45:00,,0832.3,5.01,0.00,29.4,28.6,00.0,38.6,31.1,20.5,0001.2,0012.40,0030.69,0010.15
2021-09-18 04:46:00,,0832.3,5.00,0.00,29.4,28.6,00.0,38.6,31.0,20.5,0001.0,0012.38,0031.29,0010.13
2021-09-18 04:47:00,,0832.2,5.00,0.00,29.3,28.6,00.0,38.6,31.0,20.5,0001.0,0012.39,0030.64,0010.13
2021-09-18 04:48:00,,0832.2,5.01,0.00,29.3,28.6,00.0,38.6,31.0,20.5,0000.9,0012.41,0030.01,0010.13
2021-09-18 04:49:00,,0832.2,5.00,0.00,29.3,28.6,00.0,38.6,31.0,20.5,0000.9,0012.49,0029.97,0010.13
2021-09-18 04:50:00,,0832.2,4.99,0.00,29.3,28.6,00.0,38.6,31.0,20.5,0001.3,0012.54,0029.67,0010.14
2021-09-18 04:51:00,,0832.2,5.01,0.00,29.3,28.6,00.0,38.6,31.0,20.5,0001.5,0012.56,0028.87,0010.15
2021-09-18 04:52:00,,0832.1,5.00,0.00,29.3,28.6,00.0,38.6,31.0,20.5,0001.8,0012.50,0027.50,0010.16
2021-09-18 04:53:00,,0832.1,5.01,0.00,29.3,28.6,00.0,38.6,31.0,20.5,0002.0,0012.52,0028.39,0010.17
2021-09-18 04:54:00,,0832.1,5.00,0.00,29.3,28.6,00.0,38.5,31.0,20.5,0001.7,0012.54,0030.36,0010.17
2021-09-18 04:55:00,,0832.1,5.01,0.00,29.3,28.5,00.0,38.5,31.0,20.5,0002.2,0012.61,0030.61,0010.20
2021-09-18 04:56:00,,0832.1,5.00,0.00,29.3,28.5,00.0,38.5,31.0,20.5,0002.6,0012.62,0031.90,0010.22
2021-09-18 04:57:00,,0832.1,5.01,0.00,29.3,28.5,00.0,38.5,31.0,20.5,0002.8,0012.61,0031.53,0010.22
2021-09-18 04:58:00,,0832.1,5.01,0.00,29.3,28.6,00.0,38.5,31.0,20.5,0002.6,0012.65,0031.42,0010.25
2021-09-18 04:59:00,,0832.1,5.00,0.00,29.3,28.5,00.0,38.5,31.0,20.5,0002.5,0012.69,0031.12,0010.28
